Wind_Speed
16 20 24 28 35 35 33 30 29 24 26 23 24 24 29 29 35 39 43 47 51 57 62 67 72 77 82 84 86 87 88 89 89 91 92 89 83 82 78 76 73 68 60 53
20 24 27 29 36 38 34 30 29 28 21 28 28 28 33 36 40 44 48 53 57 63 68 73 77 81 86 88 89 85 85 85 84 85 87 90 86 79 77 76 70 56 48 47
24 27 29 31 36 40 36 33 30 29 30 32 34 37 41 41 43 49 55 59 64 69 73 78 82 85 87 87 86 85 85 88 84 77 67 78 69 77 76 66 51 43 44 46
29 31 32 35 37 41 36 33 31 32 36 36 39 40 44 48 51 55 60 65 68 72 76 81 84 86 86 85 86 87 86 89 78 74 71 68 67 72 65 46 41 43 44 47
35 36 36 37 38 39 40 31 34 33 36 36 38 41 47 50 56 61 64 67 70 75 78 82 87 89 88 87 87 86 87 83 73 68 71 58 62 69 45 39 42 43 47 48
38 41 41 40 44 45 39 36 37 34 36 37 41 46 50 53 56 60 63 68 73 78 84 86 86 87 87 86 86 84 83 74 70 65 43 57 59 43 37 38 42 43 44 48
41 43 43 43 44 43 42 41 37 38 40 43 47 50 54 56 60 64 71 75 79 83 85 85 86 86 87 87 84 79 74 72 63 53 36 49 42 33 34 39 42 42 44 47
43 44 45 47 48 47 45 42 44 44 46 50 53 56 59 63 66 71 74 77 81 83 84 85 85 87 87 84 78 71 69 61 50 36 28 24 27 30 35 39 40 42 45 45
45 45 45 48 52 50 48 48 47 49 53 55 57 59 63 66 70 73 76 79 81 83 83 84 87 88 84 77 70 65 57 42 31 24 24 26 27 33 38 39 41 43 46 42
49 45 47 48 50 53 52 52 53 55 56 58 61 63 66 70 72 75 77 79 81 82 83 84 85 81 74 68 64 55 39 27 26 28 28 27 30 34 39 40 41 44 43 41
46 46 51 50 53 55 54 53 56 59 59 61 63 66 70 72 74 76 78 80 82 84 84 84 80 73 67 64 53 41 28 27 28 31 29 29 32 36 39 39 41 44 40 39
46 50 49 53 54 54 53 54 56 59 62 64 66 69 71 73 76 78 80 81 82 82 82 80 73 68 63 51 41 30 27 27 30 31 29 30 33 37 39 39 41 42 37 36
46 51 54 54 56 55 55 57 60 64 65 67 69 71 73 75 76 79 80 80 81 81 79 73 68 61 52 40 31 28 28 28 29 31 30 31 34 36 38 37 40 41 32 32
48 51 54 55 55 55 56 60 64 67 67 68 70 71 73 75 77 78 78 79 80 78 73 68 61 53 45 35 30 27 29 29 29 31 32 32 34 36 37 37 41 41 30 30
52 55 55 55 55 57 59 64 66 67 67 67 70 72 74 76 76 76 77 79 77 71 68 61 53 48 39 34 31 30 29 30 30 31 32 32 33 35 35 37 40 40 30 29
57 55 55 54 57 61 64 67 68 68 68 69 70 72 74 75 75 75 76 76 71 65 61 56 49 41 33 33 31 31 30 29 30 30 31 31 31 34 32 36 39 39 29 27
53 55 55 59 61 65 67 68 68 68 68 68 70 72 73 73 74 74 72 68 63 60 55 50 43 33 31 31 30 30 28 29 28 29 30 30 30 31 31 35 38 38 31 26
55 57 61 64 66 68 67 66 66 66 67 69 71 72 72 73 72 69 65 61 58 53 49 44 38 32 29 28 28 26 27 28 28 29 28 27 29 28 30 35 38 38 35 27
60 62 65 67 67 65 65 64 65 67 69 70 70 70 70 70 68 63 59 55 54 48 44 40 36 30 27 26 26 26 28 28 28 26 25 26 27 26 30 34 37 38 36 31
65 65 66 65 64 63 62 65 68 69 69 70 70 69 68 66 62 57 55 51 51 45 41 37 33 29 27 27 26 27 27 27 24 24 25 26 25 26 30 33 36 37 36 33
66 66 62 60 60 62 65 66 67 68 68 69 69 67 66 62 57 54 51 47 47 43 38 35 33 30 28 28 26 28 26 23 23 25 26 25 25 26 29 32 35 37 36 35
64 59 58 60 63 64 64 65 67 67 67 67 67 65 62 59 55 51 48 47 44 41 36 32 31 29 27 26 26 25 22 22 24 26 26 25 25 27 29 32 34 36 37 37
56 59 61 62 62 63 64 66 67 67 67 66 65 62 61 57 52 48 42 43 43 38 34 31 29 28 26 25 25 25 23 24 26 28 27 26 26 27 29 31 33 35 37 38
57 58 61 63 63 64 64 65 66 65 64 62 60 59 55 50 45 43 42 42 39 35 32 30 28 27 26 26 27 28 28 26 27 29 28 27 29 29 30 31 33 34 37 39
59 60 62 63 63 62 62 63 63 63 63 59 55 52 48 46 44 42 41 38 34 30 31 30 29 28 28 29 29 29 29 28 29 29 28 28 30 30 30 31 33 34 36 38
58 59 59 59 59 60 62 62 61 58 56 50 47 45 43 42 40 38 34 32 29 28 30 31 30 30 31 31 31 31 30 30 29 29 28 30 31 31 30 32 33 35 37 37
55 55 56 55 56 59 58 54 53 50 47 44 41 39 39 37 33 31 28 25 26 29 32 33 33 33 33 32 31 30 30 30 30 30 29 31 31 31 31 32 34 36 38 38
Wind_Direction
327 330 333 335 338 338 332 323 318 316 309 300 302 302 309 310 304 308 313 315 315 315 317 316 315 315 315 314 316 318 317 318 318 315 314 314 314 315 314 315 314 313 311 309
314 319 323 331 336 339 333 323 315 309 302 296 299 310 302 306 310 315 314 315 315 317 317 316 315 315 317 318 318 318 317 317 316 315 315 317 315 318 317 316 314 311 311 311
309 313 316 320 332 337 333 326 318 310 300 300 308 310 309 312 315 315 316 316 317 316 316 316 316 317 317 318 317 316 317 316 317 318 302 312 302 314 317 316 316 318 318 314
309 314 315 320 328 331 328 322 313 311 306 308 310 311 310 315 317 317 318 317 315 314 315 316 316 315 316 318 319 319 317 315 317 314 311 315 303 310 317 317 323 321 318 317
308 313 315 310 318 326 324 316 312 310 310 309 309 310 312 315 315 317 316 315 314 313 314 313 315 318 319 319 318 317 315 317 315 314 312 307 294 303 313 324 324 324 319 321
307 310 313 313 315 323 322 313 312 311 307 308 310 312 313 313 312 312 312 312 313 315 316 317 318 318 318 318 317 316 316 316 315 314 299 289 299 309 321 327 323 324 322 324
303 306 306 307 310 319 316 316 311 309 312 313 313 313 314 313 312 314 316 317 316 316 316 318 318 318 318 318 317 317 319 320 319 317 276 283 303 317 328 326 325 326 327 326
299 301 304 306 307 314 316 309 309 311 313 313 313 313 314 316 317 317 316 315 315 316 317 318 318 317 318 318 321 321 321 321 321 322 316 313 319 331 329 330 330 330 329 330
300 301 301 304 307 312 313 307 308 312 314 313 312 314 315 314 315 314 313 314 315 316 318 318 318 319 319 321 323 323 323 324 329 338 331 325 331 335 334 332 333 333 334 335
298 301 299 301 303 310 310 307 309 311 313 312 313 314 313 313 312 313 313 315 317 318 319 318 319 320 321 322 323 323 325 328 331 330 327 326 332 334 336 335 335 337 336 338
295 297 298 303 305 307 307 306 309 312 312 312 312 310 311 311 312 313 315 316 318 318 318 319 320 320 321 321 321 321 322 324 326 327 324 324 330 334 336 337 338 339 338 340
294 292 297 302 305 305 305 307 309 310 310 310 309 310 312 313 312 315 317 318 318 318 319 320 320 319 320 319 318 316 319 320 327 328 322 323 328 331 335 338 339 340 339 340
290 294 300 302 303 304 305 307 308 309 310 310 311 311 310 311 314 315 316 317 318 320 321 320 320 321 321 318 313 313 315 318 328 328 323 322 324 329 334 337 339 340 338 341
292 299 302 300 302 303 304 306 309 310 309 307 307 309 311 312 314 315 315 317 320 321 320 321 321 320 321 316 309 310 314 317 327 330 325 322 323 329 333 337 339 340 337 344
297 300 299 300 301 303 306 308 309 307 306 305 308 309 311 313 314 315 317 320 321 320 320 321 320 318 316 314 309 306 310 314 321 326 324 321 324 329 332 336 339 341 336 342
297 298 298 301 304 306 307 309 307 306 306 306 308 310 312 314 315 318 320 321 320 321 322 322 320 317 311 311 306 309 308 310 315 321 321 320 324 328 332 336 339 343 336 338
295 296 299 302 305 307 308 307 306 304 305 306 309 312 313 315 317 319 320 320 321 324 323 323 319 313 311 310 307 308 309 312 314 318 320 320 323 327 333 337 339 342 339 331
295 298 299 302 305 306 304 302 301 303 305 308 310 312 314 315 318 319 319 320 323 325 324 323 318 312 311 310 309 310 312 313 314 318 320 319 323 327 332 336 339 341 341 330
294 297 298 300 303 301 300 301 302 305 307 309 311 312 314 315 317 319 319 321 324 324 323 322 320 312 310 310 310 312 313 313 315 318 319 319 323 327 331 336 338 341 340 335
291 295 299 300 299 299 301 302 304 306 307 309 310 312 314 315 316 317 318 322 323 323 320 321 320 313 310 311 310 312 313 315 319 320 318 320 322 326 330 334 338 341 341 338
291 296 297 297 298 300 302 303 305 306 308 309 310 311 312 313 314 315 316 319 320 320 318 320 318 311 307 308 312 313 314 316 320 321 321 320 321 324 328 333 338 341 343 342
294 295 296 298 300 302 303 304 305 306 307 307 308 308 310 312 312 313 314 316 319 316 315 316 317 316 314 310 311 311 310 313 320 325 321 318 318 322 326 332 338 343 345 346
294 298 300 301 301 302 303 303 304 305 305 306 307 309 309 311 310 311 310 312 316 315 314 313 312 315 316 315 314 311 306 314 318 321 318 315 317 320 324 330 337 341 345 346
301 301 302 302 302 302 301 302 303 304 305 306 307 307 308 309 308 307 309 312 313 312 314 311 308 309 312 313 310 308 307 308 315 317 315 312 314 316 320 326 332 338 342 343
301 301 301 300 300 301 302 302 303 306 307 307 308 310 310 309 308 307 308 310 310 311 317 313 309 307 306 306 306 306 306 307 310 312 311 310 312 315 317 324 328 332 335 338
299 299 301 302 304 304 304 306 307 307 307 308 308 309 309 309 309 309 309 308 309 313 315 316 313 308 305 303 302 300 299 301 303 307 307 308 310 312 316 320 324 328 331 332
301 302 301 301 303 304 307 308 307 306 305 307 308 309 310 311 313 310 309 310 315 317 318 318 313 307 305 304 302 300 299 299 302 304 304 305 306 309 313 315 319 323 326 327
Height
5784 5782 5780 5777 5774 5769 5764 5759 5755 5755 5750 5745 5741 5739 5735 5734 5728 5723 5718 5711 5704 5696 5688 5680 5670 5658 5645 5632 5618 5603 5587 5573 5564 5549 5541 5532 5516 5504 5492 5482 5472 5462 5452 5444
5781 5778 5775 5773 5769 5763 5759 5753 5750 5746 5745 5738 5734 5734 5728 5725 5720 5715 5708 5701 5693 5685 5675 5665 5653 5640 5626 5611 5596 5587 5573 5559 5546 5532 5517 5505 5493 5484 5474 5464 5454 5446 5438 5431
5776 5773 5770 5768 5763 5757 5751 5746 5742 5739 5736 5732 5729 5725 5718 5716 5712 5705 5697 5689 5679 5669 5659 5647 5634 5622 5609 5595 5581 5570 5558 5542 5527 5515 5506 5493 5480 5470 5460 5449 5439 5432 5426 5420
5769 5767 5765 5759 5756 5751 5746 5741 5736 5731 5725 5722 5720 5716 5708 5704 5699 5691 5683 5675 5666 5655 5644 5631 5618 5607 5596 5581 5565 5548 5535 5524 5513 5501 5487 5477 5468 5459 5448 5438 5430 5424 5417 5410
5761 5759 5758 5753 5749 5746 5739 5736 5729 5725 5720 5716 5712 5707 5700 5695 5687 5679 5670 5661 5651 5639 5628 5617 5602 5587 5574 5563 5548 5533 5519 5509 5497 5484 5472 5461 5455 5451 5440 5430 5422 5417 5408 5400
5754 5750 5747 5743 5738 5735 5731 5728 5723 5720 5715 5710 5704 5698 5692 5685 5677 5669 5659 5648 5637 5624 5609 5596 5583 5570 5558 5545 5531 5515 5502 5494 5480 5468 5458 5448 5445 5440 5431 5423 5416 5409 5401 5391
5745 5742 5739 5735 5732 5728 5723 5721 5713 5708 5704 5698 5692 5686 5679 5671 5663 5653 5642 5630 5618 5605 5593 5579 5566 5553 5541 5529 5515 5499 5485 5472 5462 5454 5449 5442 5438 5432 5423 5417 5409 5402 5394 5385
5737 5733 5730 5725 5721 5720 5715 5707 5702 5697 5692 5686 5679 5672 5664 5655 5646 5636 5626 5614 5602 5589 5577 5564 5550 5537 5525 5511 5499 5484 5472 5460 5450 5442 5437 5434 5431 5424 5418 5410 5403 5395 5387 5377
5729 5725 5719 5713 5707 5706 5702 5697 5692 5686 5680 5674 5666 5658 5650 5642 5633 5622 5611 5600 5588 5575 5562 5549 5534 5520 5506 5493 5482 5471 5460 5450 5443 5438 5434 5430 5425 5419 5412 5405 5397 5388 5379 5370
5716 5717 5709 5705 5700 5695 5689 5683 5679 5674 5668 5661 5653 5645 5636 5627 5617 5607 5596 5584 5572 5560 5547 5533 5517 5503 5491 5479 5470 5459 5451 5445 5440 5435 5430 5425 5420 5414 5406 5399 5390 5382 5373 5365
5708 5704 5697 5693 5689 5684 5678 5673 5668 5661 5655 5647 5639 5630 5622 5613 5602 5591 5580 5568 5556 5543 5530 5517 5502 5489 5479 5469 5459 5451 5445 5440 5435 5430 5425 5420 5414 5409 5402 5393 5385 5377 5368 5359
5696 5690 5688 5683 5678 5672 5667 5661 5655 5649 5641 5633 5625 5616 5606 5596 5586 5574 5562 5551 5540 5527 5513 5500 5488 5477 5467 5458 5450 5444 5439 5435 5430 5425 5420 5415 5409 5403 5397 5389 5381 5372 5364 5357
5685 5679 5676 5671 5664 5659 5654 5649 5642 5635 5626 5618 5608 5600 5591 5582 5570 5559 5548 5536 5523 5510 5497 5484 5474 5464 5455 5448 5442 5437 5433 5429 5424 5419 5414 5410 5404 5399 5393 5385 5377 5369 5362 5354
5674 5670 5665 5658 5654 5649 5643 5636 5630 5621 5612 5603 5595 5586 5576 5566 5556 5544 5532 5521 5508 5495 5483 5472 5461 5451 5446 5440 5435 5431 5427 5423 5418 5413 5409 5404 5399 5393 5387 5380 5373 5365 5358 5352
5661 5656 5651 5646 5641 5636 5630 5623 5615 5606 5598 5590 5580 5570 5561 5552 5541 5529 5517 5505 5494 5481 5469 5459 5450 5442 5435 5431 5428 5424 5421 5416 5412 5408 5403 5398 5393 5388 5382 5375 5368 5360 5353 5347
5647 5642 5638 5633 5627 5621 5615 5607 5599 5591 5583 5574 5566 5557 5546 5535 5524 5513 5500 5489 5477 5468 5457 5447 5439 5432 5427 5423 5420 5416 5413 5410 5405 5401 5397 5392 5388 5383 5377 5371 5364 5356 5350 5344
5633 5629 5624 5619 5613 5606 5599 5590 5583 5576 5568 5560 5552 5541 5530 5520 5510 5498 5487 5475 5465 5454 5444 5436 5429 5424 5420 5416 5413 5409 5405 5402 5398 5394 5390 5386 5382 5378 5372 5366 5359 5352 5346 5341
5620 5616 5610 5604 5597 5591 5583 5575 5569 5562 5554 5545 5536 5526 5516 5505 5495 5486 5475 5465 5455 5446 5436 5429 5422 5417 5413 5409 5406 5402 5399 5395 5391 5387 5384 5380 5377 5372 5367 5361 5355 5348 5342 5337
5605 5600 5594 5588 5581 5574 5567 5560 5553 5546 5537 5529 5521 5512 5502 5491 5481 5471 5462 5453 5444 5437 5430 5422 5415 5410 5407 5404 5400 5396 5392 5388 5385 5381 5378 5375 5371 5367 5362 5357 5350 5344 5337 5331
5589 5584 5577 5571 5564 5558 5553 5545 5538 5530 5520 5513 5505 5496 5488 5478 5468 5460 5451 5443 5433 5428 5422 5416 5410 5405 5401 5398 5393 5390 5386 5382 5379 5375 5372 5369 5365 5361 5357 5352 5346 5340 5333 5327
5574 5568 5562 5556 5551 5544 5537 5529 5522 5514 5505 5495 5487 5480 5472 5465 5456 5448 5441 5435 5427 5420 5414 5408 5403 5399 5395 5391 5387 5383 5379 5376 5373 5370 5366 5363 5360 5356 5352 5347 5341 5335 5328 5322
5558 5553 5547 5542 5536 5530 5521 5513 5505 5499 5490 5481 5472 5464 5457 5451 5443 5438 5429 5423 5419 5412 5407 5401 5397 5392 5388 5384 5381 5377 5374 5371 5368 5364 5360 5357 5354 5350 5346 5342 5336 5331 5324 5318
5542 5537 5532 5526 5520 5514 5506 5496 5490 5482 5474 5465 5457 5449 5443 5436 5430 5425 5422 5415 5409 5403 5398 5394 5390 5386 5382 5378 5374 5371 5368 5365 5362 5358 5355 5351 5348 5345 5340 5336 5331 5326 5320 5314
5526 5520 5515 5508 5502 5495 5489 5481 5473 5467 5460 5453 5445 5436 5429 5424 5420 5412 5408 5404 5400 5395 5390 5386 5382 5379 5376 5372 5368 5365 5362 5359 5355 5352 5348 5345 5342 5338 5334 5330 5325 5320 5315 5309
5509 5504 5498 5491 5484 5477 5470 5464 5458 5450 5443 5437 5430 5423 5416 5410 5406 5404 5399 5394 5391 5387 5383 5378 5375 5371 5368 5365 5361 5358 5354 5351 5348 5344 5341 5338 5335 5332 5328 5323 5319 5314 5309 5304
5493 5487 5481 5474 5467 5460 5454 5448 5441 5435 5428 5424 5419 5412 5406 5401 5396 5392 5389 5385 5382 5379 5375 5371 5367 5363 5359 5356 5353 5349 5346 5343 5340 5337 5334 5331 5328 5324 5320 5316 5312 5307 5303 5298
5477 5471 5465 5461 5455 5447 5440 5434 5427 5422 5416 5412 5408 5403 5398 5393 5388 5384 5381 5378 5375 5372 5368 5364 5359 5355 5351 5347 5344 5341 5337 5334 5331 5329 5326 5323 5320 5316 5313 5309 5305 5300 5296 5291